Location: Fredericton
(45.9636°N, 66.6431°W)
Time: 12:26:36
(UTC-04:00)

Envisat - Visible Passes

Search period start: 02 December 2020 00:00
Search period end: 12 December 2020 00:00
Orbit: 764 x 766 km, 98.1° (Epoch: 01 December)

Date Brightness Start Highest point End Pass type
(mag) Time Alt. Az. Time Alt. Az. Time Alt. Az.
02 Dec 4.7 05:44:06 10° NNE 05:48:44 34° E 05:53:20 10° SSE visible
02 Dec 5.8 18:41:34 10° SW 18:45:11 19° W 18:48:49 10° NW visible
03 Dec 5.9 05:08:22 10° NE 05:11:34 17° E 05:14:46 10° SE visible
03 Dec 3.0 06:46:01 10° N 06:51:04 67° WNW 06:56:07 10° SSW visible
03 Dec 4.5 18:03:19 10° SSW 18:08:05 40° W 18:12:52 10° NNW visible
04 Dec 3.6 06:09:14 10° NNE 06:14:16 59° E 06:19:16 10° S visible
04 Dec 3.1 17:26:05 10° SSE 17:31:10 85° WSW 17:36:17 10° NNW visible
04 Dec 6.3 19:09:30 10° WSW 19:10:57 11° W 19:12:24 10° WNW visible
05 Dec 5.1 05:32:54 10° NE 05:37:15 28° E 05:41:34 10° SSE visible
05 Dec 3.4 07:11:39 10° N 07:16:23 40° WNW 07:21:06 10° SW visible
05 Dec 5.4 18:29:36 10° SSW 18:33:41 24° W 18:37:47 10° NW visible
06 Dec 6.1 04:57:41 10° ENE 05:00:02 13° E 05:02:22 10° ESE visible
06 Dec 2.9 06:34:35 10° NNE 06:39:43 84° WNW 06:44:47 10° SSW visible
06 Dec 4.0 17:51:42 10° S 17:56:37 50° W 18:01:35 10° NNW visible
07 Dec 4.1 05:57:55 10° NNE 06:02:50 47° E 06:07:42 10° S visible
07 Dec 3.0 17:14:43 10° SSE 17:19:47 78° ENE 17:24:53 10° N visible
07 Dec 6.1 18:56:43 10° WSW 18:59:23 14° W 19:02:05 10° NW visible
08 Dec 5.4 05:21:48 10° NE 05:25:46 22° E 05:29:42 10° SE visible
08 Dec 3.2 07:00:08 10° N 07:05:03 50° WNW 07:09:56 10° SW visible
08 Dec 5.0 18:17:46 10° SSW 18:22:12 30° W 18:26:39 10° NNW visible
09 Dec 6.3 04:48:04 10° E 04:48:28 10° E 04:48:53 10° E visible
09 Dec 3.1 06:23:12 10° NNE 06:28:19 79° ESE 06:33:24 10° S visible
09 Dec 3.6 17:40:11 10° S 17:45:12 63° WSW 17:50:16 10° NNW visible
10 Dec 4.5 05:46:40 10° NNE 05:51:23 37° E 05:56:04 10° SSE visible
10 Dec 5.9 18:44:27 10° SW 18:47:52 18° W 18:51:18 10° NW visible
11 Dec 5.7 05:10:48 10° NE 05:14:15 18° E 05:17:40 10° SE visible
11 Dec 3.0 06:48:40 10° N 06:53:42 62° WNW 06:58:42 10° SSW visible
11 Dec 4.6 18:06:03 10° SSW 18:10:43 37° W 18:15:27 10° NNW visible
